Terminal Aerodrome Forecast
Issued by NWS

Home | Current Version | Previous Version | Text Only | Print | Product List | Glossary Off
Versions: 1 2 3 4 5 6 7 8 9 10 11 12 13 14 15 16 17 18 19 20 21 22 23 24 25 26 27

000
FTUS43 KABR 251732
TAFATY
TAF
KATY 251732Z 2518/2618 25008KT P6SM SCT100
     FM251900 17010KT P6SM FEW060
     FM252300 14009KT P6SM VCTS SCT050CB
     FM260200 14008KT P6SM BKN150=

USA.gov is the U.S. government's official web portal to all federal, state and local government web resources and services.